Regional Weather Roundup
Issued by NWS Charleston, SC

Current Version | Previous Version | Graphics & Text | Print | Product List | Glossary On
Versions: 1 2 3 4 5 6 7 8 9 10 11 12 13 14 15 16 17 18 19 20 21 22 23 24 25 26 27 28 29 30 31 32 33 34 35 36 37 38 39 40 41 42 43 44 45 46 47 48 49 50
000
ASUS42 KCHS 031428
RWRCHS

REGIONAL WEATHER ROUNDUP
NATIONAL WEATHER SERVICE CHARLESTON SC
1000 AM EDT TUE MAY 03 2016

NOTE: "FAIR" INDICATES FEW OR NO CLOUDS BELOW 12,000 FEET WITH NO
SIGNIFICANT WEATHER AND/OR OBSTRUCTIONS TO VISIBILITY.

NOT ALL STATIONS ARE QUALITY CONTROLLED. USE DATA WITH CAUTION...
ESPECIALLY DEWPOINT OBSERVATIONS.

SCZ027-030-031-034>040-042>050-031500-
...SOUTHEAST SOUTH CAROLINA...

CITY           SKY/WX    TMP DP  RH WIND       PRES   REMARKS
N CHARLESTON   PTSUNNY   79  70  74 W10       29.87R
WATERFRONT PRK   N/A     78  72  81 SW7       29.84F
MOUNT PLEASANT NOT AVBL
JOHNS ISLAND   NOT AVBL
PINOPOLIS        N/A     79  72  78 W8        29.78F
MONCKS CORNER  PTSUNNY   75  66  73 W7        29.87S
SUMMERVILLE    FAIR      79  72  78 W8        29.89R
BEAUFORT MCAS  CLOUDY    80  71  74 W10       29.88S
BEAUFORT ARPT  FAIR      79  70  73 W9G18     29.88S
HILTON HEAD IS   N/A     79  70  73 SW12      29.90S
WALTERBORO     NOT AVBL
ALLENDALE      CLOUDY    79  70  73 VRB6      29.87F

...SOUTHERN MIDLANDS AND PEE DEE...

CITY           SKY/WX    TMP DP  RH WIND       PRES   REMARKS
GEORGETOWN     NOT AVBL
KINGSTREE      NOT AVBL
ORANGEBURG     PTSUNNY   76  70  82 W8        29.87F
BARNWELL       NOT AVBL
AIKEN          NOT AVBL
MANNING        NOT AVBL
COLUMBIA       CLOUDY    73  68  84 W9        29.86F
SUMTER         PTSUNNY   70  66  88 W6        29.85S
FLORENCE       CLOUDY    69  66  90 SW5       29.87F
MYRTLE BEACH   TSTM      73  63  68 NW7       29.91R
N MYRTLE BEACH TSTM      69  67  93 VRB3      29.89R VSB 3/4

$$

GAZ063-065-086>088-099>101-113>116-118-119-134>141-150-031500-
...SOUTHEAST GEORGIA...

CITY           SKY/WX    TMP DP  RH WIND       PRES   REMARKS
SAVANNAH ARPT  PTSUNNY   78  70  76 W13       29.90S
HUNTER AAF     MOSUNNY   78  73  85 W16       29.87S
FORT STEWART   CLOUDY    77  70  78 W13       29.90R
STATESBORO     MOSUNNY   81  74  78 W8        29.90S
SYLVANIA       PTSUNNY   78  72  79 W7        29.90S
CLAXTON        PTSUNNY   77  73  86 SW7       29.91S

...CSRA...CENTRAL AND FAR SOUTHEAST GEORGIA...

CITY           SKY/WX    TMP DP  RH WIND       PRES   REMARKS
THOMSON        SUNNY     76  69  80 W7        29.93F
AUGUSTA-BUSH   PTSUNNY   75  68  78 W8        29.87S
AUGUSTA-DANIEL CLOUDY    72  66  81 VRB7      29.89S
SWAINSBORO     FAIR      77  68  73 W7        29.92R
VIDALIA        MOSUNNY   73  70  88 W6        29.92S
EASTMAN        CLOUDY    75  72  89 W6        29.95S
HAZLEHURST     TSTM      74  73  95 SW5       29.93R
ALMA           PTSUNNY   71  69  93 W5        29.95S
WAYCROSS       CLOUDY    74  72  95 W8        29.94R THUNDER
JESUP          CLOUDY    79  73  83 NW13G18   29.94R
BAXLEY         CLOUDY    77  73  88 SW8       29.94R
BRUNSWICK      CLOUDY    82  72  69 W13       29.93R
SAINT SIMONS   MOSUNNY   78  70  76 W13G22    29.91F

$$

SCZ027-028-034-036>038-045-046-048>050-GAZ119-141-031500-
...LAKE AND SUPPLEMENTAL COASTAL OBSERVATIONS...

STATION/POSITION TIME  TEMP    WIND        PRES    WAVE   SWELL
                       AIR SEA DIR/SP/G            HT/PER HT/PER/DIR
                 (UTC) (F)     (DEG/KT/KT) (MB)    (FT/S) (FT/S/D)
WINYAH BAY       1345   76     260/  6     1011.0S
LAKE MURRAY      1300   69     250/  6/ 10 1010.8S
ACE BASIN NERRS  1300   76     240/  4     1012.0S
FORT PULASKI     1400   77 74  270/ 13/ 15 1012.5R
SAPELO ISLAND    1400   76     250/ 13     1013.0S

$$

ANZ835-935-AMZ111-154-330-350-352-354-370-450-454-472-031500-
...C-MAN AND BUOY OBSERVATIONS...

STATION/POSITION TIME  TEMP    WIND        PRES    WAVE   SWELL
                       AIR SEA DIR/SP/G            HT/PER HT/PER/DIR
                 (UTC) (F)     (DEG/KT/KT) (MB)    (FT/S) (FT/S/D)
BUOY 41004       1250   75 74  210/ 14/ 16 1011.1    5/ 6   2/10
BUOY 41008       NOT AVBL
FOLLY BEACH CMAN 1400   80     250/  8/ 11 1011.7R
CAPERS NEARSHORE 1308   74 72  240/ 14/ 16 1011.2F
FRIPP NEARSHORE  1408   76 75  250/ 10/ 12 1011.5R


STATION/POSITION TIME  TEMP    WIND        PRES    WAVE   SWELL
                       AIR SEA DIR/SP/G            HT/PER HT/PER/DIR
                 (UTC) (F)     (DEG/KT/KT) (MB)    (FT/S) (FT/S/D)
5E ST. MARYS GA  1321      72                N/A     3/ 5
FRYING PAN BUOY  1400   72 73  170/ 14/ 19 1011.8F
BUOY 41025       1250   74 73  230/ 21/ 25 1010.8    5/ 6   2/110/ 9
CAPE LOOKOUT NC  1400   64     280/  7/  9 1012.6F
BUOY 41002       1250   74 74  180/ 16/ 19 1015.8    4/ 5   2/ 90/ 9
BUOY 41010       1320   78 78  190/ 17/ 21 1014.7R
ST AUGUSTINE FL  1400   79 71  230/  9/ 11 1014.8S


$$




USA.gov is the U.S. government's official web portal to all federal, state and local government web resources and services.